Date String (YYYY-MM-DD hh:mm:ss) UTC,Instrument flags,absolute air pressure of the measurement (hPa),sample flow rate (lpm),inlet stack bypass flow (lpm),air temperature of the measurement (°C),ambient temperature measured by the external sensor (°C),aerosol sample conditioner tube jacket temperature (°C),OPC LED temperature (°C),internal box temperature (°C),relative humidity of the measurement (%),span deviation,mass concentration of particles derived from Lorenz-Mie calculation of OPC scattering (μg/m³),mass concentration of particles derived from Lorenz-Mie calculation of OPC scattering (μg/m³),mass concentration of particles derived from Lorenz-Mie calculation of OPC scattering (μg/m³)
DateTimeUTC,F1_M11,P_M11,Q1_M11,Q2_M11,T1_M11,T2_M11,T3_M11,T4_M11,T5_M11,U1_M11,ZSPAN_M11,X0_M11,X2_M11,X1_M11
2024-04-12 04:00:00,SystemResetWarning,0830.6,5.01,000.00,026.2,025.4,000.0,034.8,028.1,012.2,0000.0,0021.04,0005.76,0003.51
2024-04-12 04:01:00,SystemResetWarning,0830.6,5.01,000.00,026.2,025.4,000.0,034.8,028.1,012.2,0000.0,0021.82,0005.82,0003.52
2024-04-12 04:02:00,SystemResetWarning,0830.6,5.00,000.00,026.2,025.4,000.0,034.8,028.1,012.2,0000.0,0021.13,0005.90,0003.52
2024-04-12 04:03:00,SystemResetWarning,0830.6,4.99,000.00,026.2,025.4,000.0,034.8,028.1,012.2,0000.0,0020.49,0005.87,0003.53
2024-04-12 04:04:00,SystemResetWarning,0830.5,4.99,000.00,026.2,025.4,000.0,034.8,028.1,012.2,0000.0,0019.78,0005.88,0003.53
2024-04-12 04:05:00,SystemResetWarning,0830.5,5.00,000.00,026.2,025.4,000.0,034.8,028.1,012.2,0000.0,0018.58,0005.82,0003.50
2024-04-12 04:06:00,SystemResetWarning,0830.6,5.00,000.00,026.2,025.4,000.0,034.8,028.1,012.2,0000.0,0018.88,0005.77,0003.48
2024-04-12 04:07:00,SystemResetWarning,0830.6,5.01,000.00,026.2,025.4,000.0,034.7,028.0,012.2,0000.0,0019.07,0005.80,0003.48
2024-04-12 04:08:00,SystemResetWarning,0830.6,5.01,000.00,026.2,025.4,000.0,034.7,028.1,012.2,0000.0,0019.42,0005.82,0003.48
2024-04-12 04:09:00,SystemResetWarning,0830.6,4.99,000.00,026.2,025.4,000.0,034.7,028.1,012.2,0000.0,0018.53,0005.80,0003.48
2024-04-12 04:10:00,SystemResetWarning,0830.6,4.99,000.00,026.2,025.4,000.0,034.7,028.1,012.2,0000.0,0018.44,0005.74,0003.49
2024-04-12 04:11:00,SystemResetWarning,0830.6,5.00,000.00,026.2,025.4,000.0,034.7,028.0,012.2,0000.0,0018.91,0005.78,0003.48
2024-04-12 04:12:00,SystemResetWarning,0830.6,5.01,000.00,026.2,025.4,000.0,034.7,028.0,012.2,0000.0,0017.96,0005.74,0003.48
2024-04-12 04:13:00,SystemResetWarning,0830.6,5.01,000.00,026.2,025.4,000.0,034.7,028.0,012.1,0000.0,0017.21,0005.63,0003.47
2024-04-12 04:14:00,SystemResetWarning,0830.6,5.00,000.00,026.2,025.4,000.0,034.7,028.0,012.1,0000.0,0017.39,0005.66,0003.49
2024-04-12 04:15:00,SystemResetWarning,0830.6,5.00,000.00,026.2,025.3,000.0,034.7,028.0,012.1,0000.0,0017.36,0005.63,0003.49
2024-04-12 04:16:00,SystemResetWarning,0830.6,5.00,000.00,026.1,025.3,000.0,034.7,028.0,012.1,0000.0,0017.47,0005.67,0003.51
2024-04-12 04:17:00,SystemResetWarning,0830.6,4.99,000.00,026.1,025.3,000.0,034.7,028.0,012.1,0000.0,0016.42,0005.69,0003.51
2024-04-12 04:18:00,SystemResetWarning,0830.6,5.00,000.00,026.1,025.3,000.0,034.7,028.0,012.1,0000.0,0015.57,0005.75,0003.52
2024-04-12 04:19:00,SystemResetWarning,0830.6,5.00,000.00,026.1,025.3,000.0,034.7,028.0,012.1,0000.0,0015.67,0005.80,0003.52
2024-04-12 04:20:00,SystemResetWarning,0830.5,5.00,000.00,026.1,025.3,000.0,034.7,028.0,012.0,0000.0,0015.42,0005.72,0003.50
2024-04-12 04:21:00,SystemResetWarning,0830.5,5.00,000.00,026.1,025.3,000.0,034.7,028.0,012.0,0000.0,0015.34,0005.76,0003.50
2024-04-12 04:22:00,SystemResetWarning,0830.7,5.01,000.00,026.1,025.3,000.0,034.7,028.0,012.0,0000.0,0014.89,0005.75,0003.51
2024-04-12 04:23:00,SystemResetWarning,0830.5,5.01,000.00,026.1,025.3,000.0,034.7,028.0,012.0,0000.0,0014.59,0005.72,0003.51
2024-04-12 04:24:00,SystemResetWarning,0830.5,5.01,000.00,026.1,025.3,000.0,034.7,027.9,012.0,0000.0,0014.88,0005.77,0003.51
2024-04-12 04:25:00,SystemResetWarning,0830.6,5.00,000.00,026.1,025.3,000.0,034.7,027.9,012.0,0000.0,0014.49,0005.73,0003.50
2024-04-12 04:26:00,SystemResetWarning,0830.5,4.99,000.00,026.1,025.3,000.0,034.6,027.9,012.0,0000.0,0014.78,0005.70,0003.50
2024-04-12 04:27:00,SystemResetWarning,0830.5,5.00,000.00,026.1,025.3,000.0,034.6,027.9,012.0,0000.0,0015.17,0005.68,0003.51
2024-04-12 04:28:00,SystemResetWarning,0830.6,4.99,000.00,026.1,025.3,000.0,034.6,027.9,012.0,0000.0,0016.47,0005.68,0003.52
2024-04-12 04:29:00,SystemResetWarning,0830.6,5.00,000.00,026.1,025.3,000.0,034.6,027.9,012.0,0000.0,0017.26,0005.65,0003.54
2024-04-12 04:30:00,SystemResetWarning,0830.5,5.00,000.00,026.1,025.2,000.0,034.6,027.9,012.0,0000.0,0017.24,0005.63,0003.58
2024-04-12 04:31:00,SystemResetWarning,0830.5,5.00,000.00,026.1,025.2,000.0,034.6,027.9,012.0,0000.0,0017.61,0005.76,0003.60
2024-04-12 04:32:00,SystemResetWarning,0830.6,5.00,000.00,026.0,025.2,000.0,034.6,027.9,012.0,0000.0,0017.99,0005.78,0003.60
2024-04-12 04:33:00,SystemResetWarning,0830.6,5.00,000.00,026.0,025.2,000.0,034.6,027.9,012.0,0000.0,0018.39,0005.77,0003.60
2024-04-12 04:34:00,SystemResetWarning,0830.6,5.01,000.00,026.0,025.2,000.0,034.6,027.9,012.0,0000.0,0018.59,0005.81,0003.60
2024-04-12 04:35:00,SystemResetWarning,0830.5,5.00,000.00,026.0,025.2,000.0,034.6,027.9,012.0,0000.0,0019.65,0005.81,0003.60
2024-04-12 04:36:00,SystemResetWarning,0830.5,5.00,000.00,026.0,025.2,000.0,034.6,027.9,012.0,0000.0,0019.83,0005.83,0003.60
2024-04-12 04:37:00,SystemResetWarning,0830.7,5.00,000.00,026.0,025.2,000.0,034.6,027.9,012.0,0000.0,0019.77,0005.90,0003.59
2024-04-12 04:38:00,SystemResetWarning,0830.5,5.00,000.00,026.0,025.2,000.0,034.6,027.9,012.0,0000.0,0019.59,0005.88,0003.58
2024-04-12 04:39:00,SystemResetWarning,0830.5,5.00,000.00,026.0,025.2,000.0,034.6,027.9,011.9,0000.0,0018.17,0005.86,0003.58
2024-04-12 04:40:00,SystemResetWarning,0830.7,4.99,000.00,026.0,025.2,000.0,034.6,027.9,011.9,0000.0,0017.61,0005.84,0003.58
2024-04-12 04:41:00,SystemResetWarning,0830.6,4.99,000.00,026.0,025.2,000.0,034.6,027.9,011.9,0000.0,0017.45,0005.81,0003.54
2024-04-12 04:42:00,SystemResetWarning,0830.5,5.00,000.00,026.0,025.2,000.0,034.6,027.9,011.9,0000.0,0017.95,0005.77,0003.54
2024-04-12 04:43:00,SystemResetWarning,0830.5,5.00,000.00,026.0,025.2,000.0,034.6,027.8,011.9,0000.0,0018.28,0005.73,0003.53
2024-04-12 04:44:00,SystemResetWarning,0830.5,5.01,000.00,026.0,025.2,000.0,034.6,027.8,011.9,0000.0,0018.23,0005.67,0003.52
2024-04-12 04:45:00,SystemResetWarning,0830.6,5.00,000.00,026.0,025.2,000.0,034.5,027.8,011.9,0000.0,0018.28,0005.66,0003.52
2024-04-12 04:46:00,SystemResetWarning,0830.6,4.99,000.00,026.0,025.1,000.0,034.5,027.8,011.8,0000.0,0018.00,0005.66,0003.54
2024-04-12 04:47:00,SystemResetWarning,0830.4,4.99,000.00,026.0,025.1,000.0,034.5,027.8,011.8,0000.0,0017.77,0005.63,0003.55
2024-04-12 04:48:00,SystemResetWarning,0830.5,5.00,000.00,026.0,025.1,000.0,034.5,027.8,011.8,0000.0,0018.09,0005.58,0003.55
2024-04-12 04:49:00,SystemResetWarning,0830.5,5.00,000.00,025.9,025.1,000.0,034.5,027.8,011.8,0000.0,0018.36,0005.59,0003.56
2024-04-12 04:50:00,SystemResetWarning,0830.5,5.00,000.00,025.9,025.1,000.0,034.5,027.8,011.7,0000.0,0018.62,0005.59,0003.56
2024-04-12 04:51:00,SystemResetWarning,0830.5,5.01,000.00,025.9,025.1,000.0,034.5,027.8,011.7,0000.0,0019.21,0005.57,0003.55
2024-04-12 04:52:00,SystemResetWarning,0830.4,5.00,000.00,025.9,025.1,000.0,034.5,027.8,011.7,0000.0,0018.84,0005.58,0003.54
2024-04-12 04:53:00,SystemResetWarning,0830.4,5.00,000.00,025.9,025.1,000.0,034.5,027.8,011.7,0000.0,0018.24,0005.56,0003.52
2024-04-12 04:54:00,SystemResetWarning,0830.3,5.00,000.00,025.9,025.1,000.0,034.5,027.8,011.7,0000.0,0017.56,0005.57,0003.52
2024-04-12 04:55:00,SystemResetWarning,0830.3,5.00,000.00,025.9,025.1,000.0,034.5,027.8,011.7,0000.0,0017.24,0005.67,0003.54
2024-04-12 04:56:00,SystemResetWarning,0830.4,5.00,000.00,025.9,025.1,000.0,034.5,027.8,011.9,0000.0,0017.75,0005.70,0003.53
2024-04-12 04:57:00,SystemResetWarning,0830.3,5.00,000.00,025.9,025.1,000.0,034.5,027.7,011.9,0000.0,0017.44,0005.69,0003.53
2024-04-12 04:58:00,SystemResetWarning,0830.3,5.00,000.00,025.9,025.1,000.0,034.5,027.7,011.9,0000.0,0016.98,0005.74,0003.52
2024-04-12 04:59:00,SystemResetWarning,0830.3,5.01,000.00,025.9,025.1,000.0,034.5,027.7,011.9,0000.0,0017.44,0005.74,0003.52
